31-12-2023, 00:00:01,    220,    1.8,    6.3,   0.00,   0.00,  988.5,    0.4, -999.0
31-12-2023, 00:00:11,    205,    2.7,    6.3,   0.00,   0.00,  988.5,    0.4, -999.0
31-12-2023, 00:00:21,    186,    1.4,    6.4,   0.00,   0.00,  988.5,    0.3, -999.0
31-12-2023, 00:00:31,    180,    1.2,    6.3,   0.01,   0.01,  988.5,    0.3, -999.0
31-12-2023, 00:00:41,    195,    2.0,    6.3,   0.00,   0.00,  988.5,    0.4, -999.0
31-12-2023, 00:00:51,    225,    2.2,    6.4,   0.00,   0.00,  988.5,    0.7, -999.0
31-12-2023, 00:01:01,    163,    0.2,    6.2,   0.00,   0.00,  988.4,    0.4, -999.0
31-12-2023, 00:01:11,    165,    1.4,    6.3,   0.00,   0.00,  988.5,    0.6, -999.0
31-12-2023, 00:01:20,    210,    2.3,    6.3,   0.00,   0.00,  988.4,    0.5, -999.0
31-12-2023, 00:01:31,    223,    1.9,    6.3,   0.00,   0.00,  988.4,    0.4, -999.0
31-12-2023, 00:01:41,    217,    2.7,    6.3,   0.00,   0.00,  988.5,    0.3, -999.0
31-12-2023, 00:01:50,    134,    1.3,    6.3,   0.00,   0.00,  988.4,    0.3, -999.0
31-12-2023, 00:02:00,    140,    0.7,    6.3,   0.00,   0.00,  988.4,    0.4, -999.0
31-12-2023, 00:02:11,    155,    0.5,    6.3,   0.00,   0.00,  988.4,    0.3, -999.0
31-12-2023, 00:02:21,    199,    1.6,    6.3,   0.00,   0.00,  988.4,    0.4, -999.0
31-12-2023, 00:02:30,    198,    0.5,    6.3,   0.00,   0.00,  988.3,    0.3, -999.0
31-12-2023, 00:02:41,    195,    0.7,    6.3,   0.01,   0.01,  988.3,    0.4, -999.0
31-12-2023, 00:02:51,    206,    1.5,    6.3,   0.00,   0.00,  988.3,    0.3, -999.0
31-12-2023, 00:03:00,    186,    2.5,    6.3,   0.00,   0.00,  988.3,    0.5, -999.0
31-12-2023, 00:03:10,    196,    2.0,    6.3,   0.00,   0.00,  988.3,    0.4, -999.0
31-12-2023, 00:03:21,    215,    1.5,    6.3,   0.00,   0.00,  988.3,    0.3, -999.0
31-12-2023, 00:03:30,    212,    2.6,    6.3,   0.00,   0.00,  988.3,    0.3, -999.0
31-12-2023, 00:03:40,    217,    4.0,    6.2,   0.00,   0.00,  988.3,    0.4, -999.0
31-12-2023, 00:03:50,    232,    2.6,    6.3,   0.00,   0.00,  988.3,    0.3, -999.0
31-12-2023, 00:04:01,    249,    3.1,    6.2,   0.00,   0.00,  988.3,    0.3, -999.0
31-12-2023, 00:04:10,    206,    2.3,    6.2,   0.00,   0.00,  988.3,    0.4, -999.0
31-12-2023, 00:04:20,    173,    1.6,    6.3,   0.00,   0.00,  988.3,    0.4, -999.0
31-12-2023, 00:04:30,    219,    2.0,    6.3,   0.00,   0.00,  988.3,    0.3, -999.0
31-12-2023, 00:04:40,    209,    4.6,    6.2,   0.00,   0.00,  988.3,    0.4, -999.0
31-12-2023, 00:04:50,    199,    3.2,    6.2,   0.00,   0.00,  988.3,    0.3, -999.0
31-12-2023, 00:05:00,    161,    1.5,    6.2,   0.00,   0.00,  988.3,    0.4, -999.0
31-12-2023, 00:05:10,    182,    0.5,    6.2,   0.01,   0.01,  988.3,    0.2, -999.0
31-12-2023, 00:05:20,    193,    1.9,    6.3,   0.00,   0.00,  988.3,    0.4, -999.0
31-12-2023, 00:05:30,    180,    2.4,    6.3,   0.00,   0.00,  988.3,    0.5, -999.0
31-12-2023, 00:05:40,    224,    2.2,    6.3,   0.00,   0.00,  988.3,    0.4, -999.0
31-12-2023, 00:05:50,    198,    2.2,    6.2,   0.00,   0.00,  988.3,    0.5, -999.0
31-12-2023, 00:06:00,    130,    1.3,    6.2,   0.00,   0.00,  988.3,    0.3, -999.0
31-12-2023, 00:06:10,    207,    0.5,    6.2,   0.00,   0.00,  988.3,    0.1, -999.0
31-12-2023, 00:06:20,    242,    4.1,    6.2,   0.00,   0.00,  988.3,    0.4, -999.0
31-12-2023, 00:06:30,    244,    2.1,    6.1,   0.00,   0.00,  988.3,    0.3, -999.0
31-12-2023, 00:06:40,    244,    0.4,    6.3,   0.00,   0.00,  988.3,    0.1, -999.0
31-12-2023, 00:06:50,    190,    0.2,    6.2,   0.00,   0.00,  988.3,    0.4, -999.0
31-12-2023, 00:07:00,    211,    1.8,    6.2,   0.00,   0.00,  988.4,    0.4, -999.0
31-12-2023, 00:07:10,    245,    1.7,    6.2,   0.00,   0.00,  988.4,    0.4, -999.0
31-12-2023, 00:07:20,    184,    1.7,    6.2,   0.00,   0.00,  988.3,    0.3, -999.0
31-12-2023, 00:07:30,    192,    0.5,    6.2,   0.00,   0.00,  988.3,    0.7, -999.0
31-12-2023, 00:07:40,    195,    0.5,    6.2,   0.00,   0.00,  988.3,    0.5, -999.0
31-12-2023, 00:07:50,    202,    1.8,    6.2,   0.00,   0.00,  988.3,    0.6, -999.0
31-12-2023, 00:08:00,    147,    0.4,    6.2,   0.00,   0.00,  988.2,    0.2, -999.0
31-12-2023, 00:08:10,    186,    0.4,    6.1,   0.00,   0.00,  988.2,    0.5, -999.0
31-12-2023, 00:08:20,    159,    1.2,    6.2,   0.00,   0.00,  988.3,    0.2, -999.0
31-12-2023, 00:08:30,    197,    0.9,    6.1,   0.00,   0.00,  988.3,    0.1, -999.0
31-12-2023, 00:08:40,    228,    1.9,    6.2,   0.00,   0.00,  988.3,    0.6, -999.0
31-12-2023, 00:08:50,    224,    0.6,    6.2,   0.01,   0.01,  988.3,    0.5, -999.0
31-12-2023, 00:09:00,    171,    0.9,    6.2,   0.00,   0.00,  988.3,    0.3, -999.0
31-12-2023, 00:09:10,    175,    1.2,    6.2,   0.00,   0.00,  988.3,    0.4, -999.0
31-12-2023, 00:09:20,    217,    2.3,    6.2,   0.00,   0.00,  988.3,    0.2, -999.0
31-12-2023, 00:09:29,    165,    2.0,    6.1,   0.00,   0.00,  988.3,    0.3, -999.0
31-12-2023, 00:09:40,    166,    0.7,    6.1,   0.00,   0.00,  988.2,    0.3, -999.0
31-12-2023, 00:09:50,    203,    2.1,    6.1,   0.00,   0.00,  988.3,    0.3, -999.0
31-12-2023, 00:10:00,    195,    2.0,    6.3,   0.00,   0.00,  988.3,    0.6, -999.0
31-12-2023, 00:10:09,    207,    1.6,    6.1,   0.00,   0.00,  988.3,    1.1, -999.0
31-12-2023, 00:10:20,    234,    1.0,    6.1,   0.00,   0.00,  988.3,    0.4, -999.0
31-12-2023, 00:10:30,    211,    0.0,    6.1,   0.00,   0.00,  988.2,    0.3, -999.0
31-12-2023, 00:10:39,    184,    0.3,    6.1,   0.00,   0.01,  988.3,    0.3, -999.0
31-12-2023, 00:10:49,    170,    2.2,    6.1,   0.01,   0.00,  988.2,    0.4, -999.0
31-12-2023, 00:11:00,    204,    1.4,    6.2,   0.00,   0.00,  988.3,    0.4, -999.0
31-12-2023, 00:11:09,    203,    0.7,    6.1,   0.00,   0.00,  988.2,    0.3, -999.0
31-12-2023, 00:11:19,    212,    4.1,    6.2,   0.00,   0.00,  988.3,    0.6, -999.0
31-12-2023, 00:11:30,    191,    4.3,    6.1,   0.00,   0.00,  988.3,    0.4, -999.0
31-12-2023, 00:11:39,    174,    2.2,    6.1,   0.00,   0.00,  988.3,    0.5, -999.0
31-12-2023, 00:11:49,    180,    0.8,    6.2,   0.00,   0.00,  988.3,    0.4, -999.0
31-12-2023, 00:11:59,    197,    0.7,    6.1,   0.00,   0.00,  988.2,    0.2, -999.0
31-12-2023, 00:12:10,    196,    2.2,    6.2,   0.00,   0.00,  988.3,    0.4, -999.0
31-12-2023, 00:12:19,    191,    0.1,    6.0,   0.00,   0.00,  988.1,    0.4, -999.0
31-12-2023, 00:12:29,    199,    0.6,    6.0,   0.00,   0.00,  988.2,    0.3, -999.0
31-12-2023, 00:12:39,    190,    2.3,    6.2,   0.00,   0.00,  988.3,    0.5, -999.0
31-12-2023, 00:12:49,    199,    0.4,    6.1,   0.00,   0.00,  988.2,    0.3, -999.0
31-12-2023, 00:12:59,    197,    1.8,    6.0,   0.00,   0.00,  988.2,    0.4, -999.0
31-12-2023, 00:13:09,    200,    1.7,    6.1,   0.01,   0.01,  988.2,    0.3, -999.0
31-12-2023, 00:13:19,    200,    0.3,    6.1,   0.00,   0.00,  988.2,    0.4, -999.0
31-12-2023, 00:13:29,    199,    0.2,    6.0,   0.00,   0.00,  988.2,    0.7, -999.0
31-12-2023, 00:13:39,    182,    0.7,    6.1,   0.00,   0.00,  988.3,    0.3, -999.0
31-12-2023, 00:13:49,    209,    1.3,    6.1,   0.00,   0.00,  988.3,    0.4, -999.0
31-12-2023, 00:13:59,    208,    1.5,    6.1,   0.00,   0.00,  988.2,    0.3, -999.0
31-12-2023, 00:14:09,    232,    0.7,    6.1,   0.00,   0.00,  988.2,    0.4, -999.0
31-12-2023, 00:14:19,    189,    2.0,    6.1,   0.00,   0.00,  988.2,    0.5, -999.0
31-12-2023, 00:14:29,    190,    1.3,    6.1,   0.00,   0.00,  988.2,    0.4, -999.0
31-12-2023, 00:14:39,    170,    1.8,    6.1,   0.00,   0.00,  988.2,    0.4, -999.0
31-12-2023, 00:14:49,    226,    1.3,    6.1,   0.00,   0.00,  988.2,    0.5, -999.0
31-12-2023, 00:14:59,    205,    2.2,    6.1,   0.00,   0.00,  988.2,    0.6, -999.0
31-12-2023, 00:15:09,    203,    1.1,    6.1,   0.00,   0.00,  988.2,    0.3, -999.0
31-12-2023, 00:15:19,    210,    1.3,    6.1,   0.00,   0.00,  988.2,    0.3, -999.0
31-12-2023, 00:15:29,    199,    0.9,    6.0,   0.00,   0.00,  988.2,    0.2, -999.0
31-12-2023, 00:15:39,    199,    0.0,    6.0,   0.00,   0.00,  988.1,    0.3, -999.0
31-12-2023, 00:15:49,    198,    0.6,    6.0,   0.00,   0.00,  988.2,    0.3, -999.0
31-12-2023, 00:15:59,    181,    1.2,    6.1,   0.00,   0.00,  988.2,    0.4, -999.0
31-12-2023, 00:16:09,    210,    2.9,    6.1,   0.00,   0.00,  988.2,    0.1, -999.0
31-12-2023, 00:16:19,    193,    2.2,    6.1,   0.00,   0.00,  988.2,    0.5, -999.0
31-12-2023, 00:16:29,    170,    1.5,    6.0,   0.01,   0.01,  988.3,    0.4, -999.0
31-12-2023, 00:16:39,    189,    1.6,    5.8,   0.00,   0.00,  988.2,    0.2, -999.0
31-12-2023, 00:16:49,    179,    1.8,    6.1,   0.00,   0.00,  988.2,    0.5, -999.0
31-12-2023, 00:16:59,    209,    1.6,    6.1,   0.00,   0.00,  988.2,    0.5, -999.0
31-12-2023, 00:17:09,    213,    2.0,    6.1,   0.00,   0.00,  988.2,    0.6, -999.0
31-12-2023, 00:17:19,    214,    0.4,    6.0,   0.00,   0.00,  988.1,    0.1, -999.0
31-12-2023, 00:17:29,    214,    0.2,    6.0,   0.00,   0.00,  988.1,    0.3, -999.0
31-12-2023, 00:17:38,    201,    1.0,    6.1,   0.00,   0.00,  988.2,    0.6, -999.0
31-12-2023, 00:17:49,    191,    0.9,    6.1,   0.00,   0.00,  988.2,    0.1, -999.0
31-12-2023, 00:17:59,    175,    1.1,    6.1,   0.00,   0.00,  988.2,    0.5, -999.0
31-12-2023, 00:18:09,    206,    1.4,    6.0,   0.00,   0.00,  988.2,    0.5, -999.0
31-12-2023, 00:18:18,    209,    2.2,    6.0,   0.00,   0.00,  988.2,    0.4, -999.0
31-12-2023, 00:18:29,    206,    1.0,    6.0,   0.00,   0.00,  988.3,    0.6, -999.0
31-12-2023, 00:18:39,    200,    0.5,    6.0,   0.00,   0.00,  988.2,    0.1, -999.0
31-12-2023, 00:18:48,    199,    0.9,    6.0,   0.00,   0.00,  988.2,    0.4, -999.0
31-12-2023, 00:18:58,    224,    1.4,    6.0,   0.00,   0.00,  988.3,    0.4, -999.0
31-12-2023, 00:19:09,    192,    0.5,    6.0,   0.00,   0.00,  988.2,    0.5, -999.0
31-12-2023, 00:19:18,    190,    0.3,    6.0,   0.01,   0.01,  988.2,    0.6, -999.0
31-12-2023, 00:19:28,    172,    0.7,    6.0,   0.00,   0.00,  988.2,    0.2, -999.0
31-12-2023, 00:19:39,    176,    1.8,    6.0,   0.00,   0.00,  988.3,    0.5, -999.0
31-12-2023, 00:19:49,    172,    1.2,    6.1,   0.00,   0.00,  988.3,    0.4, -999.0
31-12-2023, 00:19:58,    201,    1.6,    6.0,   0.00,   0.00,  988.3,    0.4, -999.0
31-12-2023, 00:20:08,    216,    2.6,    5.9,   0.00,   0.00,  988.3,    0.2, -999.0
31-12-2023, 00:20:19,    217,    2.0,    6.0,   0.00,   0.00,  988.3,    0.3, -999.0
31-12-2023, 00:20:28,    203,    1.2,    6.0,   0.00,   0.00,  988.3,    0.3, -999.0
31-12-2023, 00:20:38,    197,    1.0,    6.0,   0.00,   0.00,  988.3,    0.4, -999.0
31-12-2023, 00:20:48,    188,    1.0,    6.0,   0.01,   0.01,  988.3,    0.4, -999.0
31-12-2023, 00:20:58,    182,    0.5,    6.0,   0.00,   0.00,  988.2,    0.5, -999.0
31-12-2023, 00:21:08,    204,    2.4,    6.0,   0.00,   0.00,  988.3,    0.5, -999.0
31-12-2023, 00:21:18,    203,    1.1,    6.0,   0.00,   0.00,  988.3,    0.3, -999.0
31-12-2023, 00:21:28,    216,    1.2,    6.0,   0.00,   0.00,  988.3,    0.3, -999.0
31-12-2023, 00:21:38,    204,    3.2,    6.0,   0.00,   0.00,  988.3,    0.4, -999.0
31-12-2023, 00:21:48,    198,    0.8,    6.0,   0.01,   0.01,  988.3,    0.5, -999.0
31-12-2023, 00:21:58,    233,    1.0,    5.9,   0.00,   0.00,  988.3,    0.4, -999.0
31-12-2023, 00:22:08,    231,    0.0,    6.0,   0.00,   0.00,  988.2,    0.2, -999.0
31-12-2023, 00:22:18,    211,    0.2,    5.9,   0.00,   0.00,  988.2,    0.3, -999.0
31-12-2023, 00:22:28,    212,    0.4,    5.8,   0.00,   0.00,  988.2,    0.4, -999.0
31-12-2023, 00:22:38,    191,    0.7,    6.0,   0.00,   0.00,  988.3,    0.4, -999.0
31-12-2023, 00:22:48,    193,    0.3,    5.9,   0.01,   0.01,  988.2,    0.5, -999.0
31-12-2023, 00:22:58,    193,    0.5,    5.9,   0.00,   0.00,  988.2,    0.3, -999.0
31-12-2023, 00:23:08,    187,    1.0,    5.9,   0.00,   0.00,  988.3,    0.4, -999.0
31-12-2023, 00:23:18,    194,    0.6,    6.0,   0.00,   0.01,  988.3,    0.5, -999.0
31-12-2023, 00:23:28,    193,    0.0,    5.9,   0.00,   0.00,  988.2,    0.2, -999.0
31-12-2023, 00:23:38,    195,    0.0,    5.8,   0.01,   0.00,  988.2,    0.4, -999.0
31-12-2023, 00:23:48,    174,    0.0,    5.9,   0.00,   0.00,  988.2,    0.5, -999.0
31-12-2023, 00:23:58,    175,    0.1,    6.0,   0.00,   0.00,  988.2,    0.3, -999.0
31-12-2023, 00:24:08,    191,    0.0,    5.9,   0.00,   0.00,  988.2,    0.3, -999.0
31-12-2023, 00:24:18,    197,    0.5,    6.0,   0.01,   0.01,  988.2,    0.4, -999.0
31-12-2023, 00:24:28,    195,    0.2,    5.9,   0.00,   0.00,  988.2,    0.7, -999.0
31-12-2023, 00:24:38,    195,    0.0,    5.9,   0.00,   0.00,  988.1,    0.4, -999.0
31-12-2023, 00:24:48,    195,    0.0,    5.9,   0.00,   0.00,  988.1,    0.6, -999.0
31-12-2023, 00:24:58,    193,    0.5,    5.9,   0.01,   0.01,  988.2,    0.3, -999.0
31-12-2023, 00:25:08,    193,    0.2,    5.9,   0.00,   0.00,  988.2,    0.3, -999.0
31-12-2023, 00:25:18,    192,    0.0,    5.9,   0.00,   0.00,  988.1,    0.3, -999.0
31-12-2023, 00:25:28,    212,    0.1,    6.0,   0.00,   0.00,  988.2,    0.4, -999.0
31-12-2023, 00:25:38,    197,    0.1,    5.9,   0.00,   0.00,  988.1,    0.2, -999.0
31-12-2023, 00:25:48,    198,    1.2,    6.0,   0.01,   0.01,  988.3,    0.4, -999.0
31-12-2023, 00:25:57,    197,    0.0,    5.9,   0.00,   0.00,  988.1,    0.3, -999.0
31-12-2023, 00:26:08,    201,    0.2,    5.9,   0.00,   0.00,  988.2,    0.3, -999.0
31-12-2023, 00:26:18,    176,    0.5,    5.9,   0.00,   0.01,  988.2,    0.4, -999.0
31-12-2023, 00:26:27,    204,    1.3,    6.0,   0.00,   0.00,  988.3,    0.3, -999.0
31-12-2023, 00:26:37,    190,    0.5,    5.9,   0.00,   0.00,  988.3,    0.4, -999.0
31-12-2023, 00:26:48,    195,    1.7,    5.9,   0.00,   0.00,  988.3,    0.4, -999.0
31-12-2023, 00:26:58,    195,    0.2,    5.9,   0.00,   0.01,  988.2,    0.4, -999.0
31-12-2023, 00:27:07,    191,    0.4,    5.9,   0.01,   0.00,  988.2,    0.3, -999.0
31-12-2023, 00:27:18,    214,    0.3,    5.9,   0.00,   0.00,  988.2,    0.4, -999.0
31-12-2023, 00:27:28,    202,    0.9,    5.9,   0.00,   0.00,  988.3,    0.2, -999.0
31-12-2023, 00:27:37,    188,    0.8,    5.9,   0.00,   0.00,  988.3,    0.5, -999.0
31-12-2023, 00:27:47,    188,    1.4,    5.9,   0.01,   0.01,  988.3,    0.3, -999.0
31-12-2023, 00:27:58,    192,    0.8,    5.9,   0.00,   0.00,  988.3,    0.4, -999.0
31-12-2023, 00:28:07,    193,    0.1,    5.9,   0.00,   0.00,  988.1,    0.3, -999.0
31-12-2023, 00:28:17,    223,    0.8,    6.0,   0.00,   0.00,  988.2,    0.3, -999.0
31-12-2023, 00:28:27,    223,    0.7,    5.9,   0.01,   0.01,  988.3,    0.4, -999.0
31-12-2023, 00:28:37,    224,    0.4,    5.9,   0.00,   0.00,  988.2,    0.4, -999.0
31-12-2023, 00:28:47,    222,    0.1,    5.9,   0.00,   0.00,  988.2,    0.5, -999.0
31-12-2023, 00:28:57,    222,    0.0,    5.9,   0.00,   0.01,  988.2,    0.4, -999.0
31-12-2023, 00:29:07,    150,    0.9,    5.8,   0.01,   0.00,  988.2,    0.3, -999.0
31-12-2023, 00:29:17,    190,    1.9,    5.8,   0.00,   0.00,  988.3,    0.5, -999.0
31-12-2023, 00:29:27,    174,    1.3,    5.9,   0.00,   0.01,  988.3,    0.5, -999.0
31-12-2023, 00:29:37,    210,    1.3,    5.9,   0.00,   0.00,  988.3,    0.2, -999.0
31-12-2023, 00:29:47,    211,    0.9,    5.9,   0.00,   0.00,  988.2,    0.3, -999.0
31-12-2023, 00:29:57,    211,    0.0,    5.7,   0.00,   0.00,  988.2,    0.3, -999.0
31-12-2023, 00:30:07,    211,    0.0,    5.8,   0.01,   0.01,  988.2,    0.3, -999.0
31-12-2023, 00:30:17,    212,    1.9,    5.9,   0.00,   0.00,  988.3,    0.4, -999.0
31-12-2023, 00:30:27,    184,    1.4,    5.8,   0.00,   0.00,  988.3,    0.9, -999.0
31-12-2023, 00:30:37,    194,    0.8,    5.9,   0.00,   0.00,  988.3,    0.3, -999.0
31-12-2023, 00:30:47,    193,    0.3,    5.9,   0.00,   0.00,  988.2,    0.6, -999.0
31-12-2023, 00:30:57,    175,    0.6,    5.9,   0.01,   0.01,  988.2,    0.6, -999.0
31-12-2023, 00:31:07,    221,    0.9,    5.9,   0.00,   0.00,  988.3,    0.4, -999.0
31-12-2023, 00:31:17,    217,    0.0,    5.8,   0.00,   0.00,  988.2,    0.2, -999.0
31-12-2023, 00:31:27,    217,    0.5,    5.9,   0.00,   0.00,  988.3,    0.5, -999.0
31-12-2023, 00:31:37,    240,    1.2,    5.9,   0.00,   0.00,  988.3,    0.4, -999.0
31-12-2023, 00:31:47,    205,    1.4,    5.9,   0.00,   0.00,  988.3,    0.3, -999.0
31-12-2023, 00:31:57,    205,    0.5,    6.1,   0.00,   0.00,  988.3,    0.7, -999.0
31-12-2023, 00:32:07,    202,    0.0,    5.9,   0.00,   0.00,  988.1,    0.4, -999.0
31-12-2023, 00:32:17,    202,    0.0,    5.9,   0.00,   0.00,  988.2,    0.3, -999.0
31-12-2023, 00:32:27,    206,    0.8,    5.9,   0.00,   0.00,  988.2,    0.3, -999.0
31-12-2023, 00:32:37,    201,    1.3,    5.9,   0.00,   0.00,  988.3,    0.3, -999.0
31-12-2023, 00:32:47,    176,    1.2,    5.9,   0.00,   0.00,  988.3,    0.4, -999.0
31-12-2023, 00:32:57,    163,    1.5,    5.9,   0.00,   0.00,  988.3,    0.4, -999.0
31-12-2023, 00:33:07,    195,    1.1,    5.9,   0.00,   0.00,  988.3,    0.3, -999.0
31-12-2023, 00:33:17,    195,    0.6,    5.8,   0.00,   0.01,  988.2,    0.5, -999.0
31-12-2023, 00:33:27,    195,    0.3,    5.8,   0.00,   0.00,  988.2,    0.3, -999.0
31-12-2023, 00:33:37,    212,    1.2,    5.9,   0.00,   0.00,  988.3,    0.3, -999.0
31-12-2023, 00:33:47,    203,    1.2,    5.9,   0.00,   0.00,  988.3,    0.4, -999.0
31-12-2023, 00:33:57,    190,    0.9,    5.9,   0.00,   0.00,  988.3,    0.4, -999.0
31-12-2023, 00:34:06,    204,    2.0,    5.9,   0.00,   0.00,  988.3,    0.4, -999.0
31-12-2023, 00:34:17,    191,    1.1,    5.8,   0.00,   0.00,  988.3,    0.2, -999.0
31-12-2023, 00:34:27,    192,    0.7,    5.9,   0.00,   0.00,  988.3,    0.5, -999.0
31-12-2023, 00:34:36,    194,    0.5,    5.9,   0.00,   0.00,  988.3,    0.3, -999.0
31-12-2023, 00:34:46,    196,    1.6,    5.9,   0.00,   0.00,  988.3,    0.2, -999.0
31-12-2023, 00:34:57,    200,    2.1,    5.9,   0.00,   0.00,  988.3,    0.3, -999.0
31-12-2023, 00:35:07,    178,    1.3,    5.9,   0.00,   0.00,  988.3,    0.4, -999.0
31-12-2023, 00:35:16,    220,    0.6,    5.8,   0.00,   0.00,  988.3,    0.4, -999.0
31-12-2023, 00:35:27,    197,    1.9,    5.8,   0.00,   0.00,  988.3,    0.5, -999.0
31-12-2023, 00:35:37,    201,    0.9,    5.9,   0.00,   0.00,  988.3,    0.5, -999.0
31-12-2023, 00:35:46,    202,    0.4,    5.8,   0.00,   0.00,  988.2,    0.3, -999.0
31-12-2023, 00:35:56,    212,    1.4,    5.9,   0.00,   0.00,  988.3,    0.5, -999.0
31-12-2023, 00:36:07,    198,    1.3,    5.9,   0.00,   0.00,  988.3,    0.4, -999.0
31-12-2023, 00:36:16,    198,    0.1,    5.8,   0.00,   0.00,  988.2,    0.2, -999.0
31-12-2023, 00:36:26,    198,    0.0,    5.8,   0.00,   0.00,  988.1,    0.5, -999.0
31-12-2023, 00:36:36,    198,    0.0,    5.8,   0.00,   0.00,  988.1,    0.2, -999.0
31-12-2023, 00:36:47,    198,    0.4,    5.8,   0.00,   0.00,  988.2,    0.3, -999.0
31-12-2023, 00:36:56,    210,    0.5,    5.9,   0.00,   0.00,  988.2,    0.6, -999.0
31-12-2023, 00:37:06,    178,    2.8,    5.7,   0.00,   0.00,  988.3,    0.2, -999.0
31-12-2023, 00:37:16,    166,    1.7,    5.9,   0.01,   0.01,  988.2,    0.3, -999.0
31-12-2023, 00:37:26,    166,    0.1,    5.8,   0.00,   0.00,  988.2,    0.3, -999.0
31-12-2023, 00:37:36,    188,    1.3,    5.8,   0.00,   0.00,  988.2,    0.3, -999.0
31-12-2023, 00:37:46,    203,    0.9,    5.8,   0.00,   0.00,  988.3,    0.3, -999.0
31-12-2023, 00:37:56,    198,    0.5,    5.9,   0.00,   0.00,  988.3,    0.3, -999.0
31-12-2023, 00:38:06,    199,    0.1,    5.8,   0.00,   0.00,  988.2,    0.3, -999.0
31-12-2023, 00:38:16,    185,    0.8,    5.8,   0.00,   0.00,  988.2,    0.4, -999.0
31-12-2023, 00:38:26,    186,    0.1,    5.8,   0.00,   0.00,  988.1,    0.4, -999.0
31-12-2023, 00:38:36,    217,    0.5,    5.8,   0.00,   0.00,  988.2,    0.4, -999.0
31-12-2023, 00:38:46,    149,    0.4,    5.8,   0.00,   0.00,  988.2,    0.4, -999.0
31-12-2023, 00:38:56,    178,    1.1,    5.8,   0.00,   0.00,  988.2,    0.2, -999.0
31-12-2023, 00:39:06,    203,    1.8,    5.9,   0.00,   0.00,  988.3,    0.5, -999.0
31-12-2023, 00:39:16,    213,    1.4,    5.9,   0.00,   0.00,  988.3,    0.3, -999.0
31-12-2023, 00:39:26,    173,    1.0,    5.9,   0.00,   0.00,  988.3,    0.5, -999.0
31-12-2023, 00:39:36,    187,    1.9,    5.8,   0.00,   0.00,  988.3,    0.3, -999.0
31-12-2023, 00:39:46,    223,    2.2,    5.8,   0.00,   0.00,  988.3,    0.3, -999.0
31-12-2023, 00:39:56,    213,    2.0,    5.8,   0.00,   0.00,  988.3,    0.5, -999.0
31-12-2023, 00:40:06,    212,    0.6,    5.8,   0.00,   0.00,  988.3,    0.3, -999.0
31-12-2023, 00:40:16,    213,    1.0,    5.8,   0.00,   0.00,  988.3,    0.5, -999.0
31-12-2023, 00:40:26,    173,    0.5,    5.9,   0.00,   0.00,  988.2,    0.5, -999.0
31-12-2023, 00:40:36,    187,    0.8,    5.8,   0.00,   0.00,  988.3,    0.4, -999.0
31-12-2023, 00:40:46,    203,    2.4,    5.9,   0.00,   0.00,  988.3,    0.3, -999.0
31-12-2023, 00:40:56,    205,    1.1,    5.8,   0.00,   0.00,  988.2,    0.0, -999.0
31-12-2023, 00:41:06,    181,    0.0,    5.7,   0.00,   0.00,  988.1,    0.2, -999.0
31-12-2023, 00:41:16,    209,    0.7,    5.8,   0.00,   0.00,  988.2,    0.1, -999.0
31-12-2023, 00:41:26,    212,    0.4,    5.9,   0.00,   0.00,  988.3,    0.2, -999.0
31-12-2023, 00:41:36,    211,    0.0,    5.8,   0.00,   0.00,  988.2,    0.4, -999.0
31-12-2023, 00:41:45,    150,    0.5,    5.8,   0.00,   0.00,  988.2,    0.2, -999.0
31-12-2023, 00:41:56,    150,    0.0,    5.8,   0.00,   0.00,  988.1,    0.2, -999.0
31-12-2023, 00:42:06,    154,    0.0,    5.8,   0.00,   0.01,  988.1,    0.6, -999.0
31-12-2023, 00:42:15,    199,    0.5,    5.8,   0.01,   0.00,  988.2,    0.4, -999.0
31-12-2023, 00:42:26,    179,    0.3,    5.9,   0.00,   0.00,  988.2,    0.4, -999.0
31-12-2023, 00:42:36,    208,    1.9,    5.8,   0.00,   0.00,  988.3,    0.4, -999.0
31-12-2023, 00:42:46,    149,    1.9,    5.7,   0.00,   0.00,  988.3,    0.5, -999.0
31-12-2023, 00:42:55,    201,    1.5,    5.7,   0.00,   0.00,  988.3,    0.4, -999.0
31-12-2023, 00:43:06,    165,    1.4,    5.8,   0.00,   0.00,  988.3,    0.3, -999.0
31-12-2023, 00:43:16,    165,    0.5,    5.8,   0.00,   0.00,  988.2,    0.7, -999.0
31-12-2023, 00:43:26,    165,    0.0,    5.7,   0.00,   0.00,  988.1,    0.3, -999.0
31-12-2023, 00:43:35,    165,    0.0,    5.7,   0.00,   0.00,  988.1,    0.2, -999.0
31-12-2023, 00:43:45,    166,    0.2,    5.7,   0.00,   0.00,  988.2,    0.4, -999.0
31-12-2023, 00:43:56,    210,    1.9,    5.8,   0.00,   0.00,  988.2,    0.4, -999.0
31-12-2023, 00:44:05,    162,    1.4,    5.8,   0.00,   0.00,  988.2,    0.5, -999.0
31-12-2023, 00:44:15,    228,    0.7,    5.8,   0.00,   0.00,  988.2,    0.4, -999.0
31-12-2023, 00:44:26,    218,    0.7,    5.8,   0.00,   0.00,  988.2,    0.4, -999.0
31-12-2023, 00:44:35,    249,    0.2,    5.8,   0.00,   0.00,  988.1,    0.0, -999.0
31-12-2023, 00:44:45,    218,    1.2,    5.8,   0.00,   0.00,  988.2,    0.5, -999.0
31-12-2023, 00:44:55,    182,    2.9,    5.7,   0.01,   0.01,  988.3,    0.6, -999.0
31-12-2023, 00:45:05,    224,    1.8,    5.7,   0.00,   0.00,  988.3,    0.5, -999.0
31-12-2023, 00:45:15,    174,    4.1,    5.8,   0.00,   0.00,  988.2,    0.3, -999.0
31-12-2023, 00:45:25,    192,    4.0,    5.7,   0.00,   0.00,  988.3,    0.3, -999.0
31-12-2023, 00:45:35,    202,    3.8,    5.8,   0.00,   0.00,  988.2,    0.3, -999.0
31-12-2023, 00:45:45,    203,    2.4,    5.8,   0.00,   0.00,  988.3,    0.4, -999.0
31-12-2023, 00:45:55,    165,    0.6,    5.7,   0.01,   0.01,  988.2,    0.5, -999.0
31-12-2023, 00:46:05,    198,    0.7,    5.8,   0.00,   0.00,  988.2,    0.3, -999.0
31-12-2023, 00:46:15,    175,    1.2,    5.8,   0.00,   0.00,  988.3,    0.3, -999.0
31-12-2023, 00:46:25,    191,    1.0,    5.8,   0.00,   0.00,  988.3,    0.0, -999.0
31-12-2023, 00:46:35,    212,    2.0,    5.8,   0.01,   0.01,  988.3,    0.1, -999.0
31-12-2023, 00:46:45,    202,    2.8,    5.8,   0.00,   0.00,  988.3,    0.5, -999.0